Dewpoint
51 51 51 51 51 50 49 50 50 49 49 49 49 49 49 49 49 48 48 49 50 50 50 50 51 51 52 52 52 52 54 49 46 40 34 27 45 54 56 57 56 59 58 35 28 24 19 17 16 17 16 13 13 12 18 16 14 12 12 9 9 6 4 3 0 1 6 8 9 11 10 10 11 32 38 38 32 26 39 40 49 47 53 57 59 61 63 66
51 51 51 50 50 51 52 51 50 51 52 50 50 51 51 50 49 48 49 50 50 50 50 51 51 51 52 52 52 52 51 47 44 41 37 43 55 56 58 61 58 59 52 29 25 21 15 13 13 13 15 10 15 9 16 14 14 8 8 11 6 4 5 4 4 7 7 7 11 11 10 10 16 29 38 34 29 27 42 42 47 48 54 59 60 62 64 66
51 50 51 52 52 52 52 52 51 51 51 51 50 51 50 50 50 50 50 50 50 50 50 51 51 51 51 52 52 53 50 46 42 38 34 56 54 57 60 60 56 58 33 28 23 17 11 12 12 11 11 9 8 7 11 12 11 7 12 7 2 3 5 8 8 7 8 10 10 10 10 9 22 31 38 34 34 36 35 39 44 48 53 57 60 63 65 65
51 52 51 51 52 52 52 52 52 52 52 52 52 52 51 50 49 49 50 50 51 51 51 51 51 51 52 52 54 51 49 42 32 28 39 61 59 58 61 59 59 53 35 27 20 15 13 14 13 11 10 9 9 10 5 10 9 9 7 3 3 5 5 3 6 6 8 10 10 9 10 8 28 27 34 36 35 33 30 35 41 45 52 58 60 63 65 65
51 51 51 51 51 52 52 52 52 52 52 52 52 52 52 51 50 50 50 51 51 51 51 51 51 52 52 52 54 51 48 35 26 32 52 63 60 60 61 60 59 37 26 22 18 16 13 11 11 10 9 5 9 6 4 9 7 10 6 3 4 6 4 4 5 7 8 9 8 9 8 7 14 26 32 35 33 27 30 40 45 45 54 58 60 63 63 64
51 51 51 52 52 52 52 52 52 52 52 52 52 52 52 52 52 52 52 50 50 51 51 51 51 51 52 53 51 50 44 16 27 35 65 62 60 60 62 60 57 35 23 22 19 13 11 10 9 7 5 5 5 4 5 7 9 4 4 4 6 6 6 7 7 6 7 7 8 8 8 9 11 17 28 35 35 38 40 43 44 51 54 57 62 62 62 62
51 51 51 51 51 52 52 52 52 52 52 52 52 52 52 52 53 52 52 52 50 50 51 51 51 52 52 53 51 48 37 24 28 48 62 60 60 59 60 58 54 29 24 22 18 11 10 8 7 4 4 2 5 2 6 5 7 4 1 6 5 4 5 6 5 6 7 8 8 8 9 8 8 11 26 33 37 37 39 42 45 56 58 59 60 63 62 60
51 51 51 51 51 51 52 52 52 52 51 52 52 52 52 52 52 52 51 51 51 51 51 51 51 52 53 49 47 39 27 22 32 53 62 60 54 54 54 37 33 27 25 22 18 11 8 7 7 4 3 -3 3 0 6 2 4 3 -1 -0 2 6 7 7 7 7 8 9 9 9 8 7 8 10 28 29 37 37 38 42 50 55 57 59 61 61 60 58
51 51 51 51 51 52 52 52 52 52 52 52 52 52 52 52 51 51 51 52 51 50 50 50 51 52 52 49 42 30 21 30 38 48 51 47 44 46 40 31 27 26 25 24 20 10 11 12 13 11 7 7 8 8 10 5 6 3 3 6 7 7 8 8 9 8 8 8 9 9 7 9 11 24 19 30 37 39 42 46 49 54 56 58 60 60 59 59
50 51 51 51 51 51 51 51 51 52 52 52 52 52 52 52 51 51 52 51 50 50 50 51 51 52 51 47 42 28 26 36 46 47 47 43 40 37 33 29 28 27 25 23 18 12 13 15 19 17 14 12 12 11 12 6 9 9 7 7 8 8 9 9 8 9 9 10 10 7 11 17 21 20 19 32 38 40 42 47 51 52 57 58 58 59 58 59
50 51 51 51 51 51 51 51 52 51 52 52 52 52 52 52 52 51 51 50 50 50 50 51 51 52 47 43 33 20 30 31 40 41 44 34 33 30 28 30 30 27 25 21 17 14 19 20 21 18 17 12 11 11 13 8 11 11 11 10 9 8 8 8 9 10 9 8 11 9 12 16 19 18 19 32 38 40 41 46 51 52 56 57 57 57 58 60
51 51 51 51 51 51 51 51 51 52 52 52 52 52 52 52 52 52 51 50 50 50 50 50 51 49 47 40 28 25 33 31 36 36 38 30 24 24 26 25 24 24 22 16 15 15 20 21 21 18 15 15 13 11 11 13 13 11 11 8 6 6 7 9 8 9 12 8 10 13 11 12 14 11 22 30 37 39 40 43 49 53 56 57 57 58 58 59
50 51 51 51 51 51 51 51 51 52 52 52 52 52 52 52 52 52 52 51 50 50 49 51 52 48 47 44 25 28 31 36 36 31 29 26 23 23 23 21 20 17 11 9 11 13 15 21 20 17 18 17 12 11 14 14 13 12 10 7 4 3 5 10 9 8 7 8 9 10 10 10 10 12 29 35 37 37 38 40 45 52 56 56 58 58 58 60
50 50 50 51 50 51 51 51 51 52 51 52 52 51 52 52 52 52 52 51 51 51 51 50 51 49 49 25 27 30 34 40 34 27 23 22 18 19 19 20 18 16 15 17 18 20 18 19 20 20 19 18 13 17 15 12 11 7 7 6 8 3 7 11 11 8 7 8 8 7 12 8 7 16 29 37 37 36 37 40 46 50 55 57 58 58 57 58
50 50 50 50 50 51 51 51 52 51 51 51 52 52 52 52 51 52 52 52 52 51 53 53 51 50 47 24 33 37 47 40 34 30 26 22 18 18 20 20 19 19 20 18 22 26 22 21 21 20 17 17 16 14 10 7 8 8 4 4 2 4 10 13 16 16 9 11 11 7 15 6 7 15 33 35 36 36 34 39 44 49 52 56 56 56 54 55
50 50 50 50 50 51 51 52 51 51 51 51 51 52 51 51 51 50 51 51 50 49 50 48 48 42 34 22 39 51 42 35 31 32 30 26 22 17 19 20 23 23 21 22 23 23 22 21 18 17 14 14 11 9 8 4 6 7 9 18 8 5 7 9 15 17 16 12 10 8 7 5 8 12 33 38 36 35 35 38 44 47 50 54 55 55 54 55
50 50 50 50 50 51 51 51 51 51 51 51 52 52 52 52 52 52 52 51 51 50 49 44 44 45 35 25 36 39 27 28 31 34 32 30 27 19 20 21 21 23 24 23 23 25 23 22 25 23 15 15 16 12 8 10 13 9 8 14 15 9 7 4 13 17 16 13 10 9 8 12 14 12 20 37 36 35 35 38 42 48 50 52 53 53 53 55
50 50 50 50 50 50 50 50 50 51 51 51 51 52 51 52 51 52 52 51 49 49 48 49 44 41 21 26 24 25 28 29 31 32 32 31 27 20 19 16 18 20 23 19 22 20 19 20 17 18 20 22 17 13 11 9 15 13 14 16 11 9 13 11 9 18 18 12 13 14 12 13 13 14 15 29 36 36 37 39 42 45 48 50 51 51 52 53
50 50 50 50 50 50 50 50 51 51 51 51 52 52 52 52 51 49 45 45 45 46 41 38 41 25 17 20 25 27 29 31 31 29 29 30 25 23 24 24 19 17 20 19 19 16 16 22 24 18 15 15 13 11 8 11 9 10 11 11 13 12 7 6 17 22 21 16 9 13 12 15 16 15 14 30 38 39 39 43 46 46 45 48 49 49 51 52
50 50 50 50 51 50 51 51 51 51 51 51 52 53 52 50 48 45 45 43 34 30 28 28 28 27 24 24 25 28 31 32 24 24 28 28 26 25 22 18 19 15 18 21 21 25 28 20 16 14 13 21 26 27 28 22 20 22 17 17 10 7 11 15 16 21 28 21 14 19 20 17 18 19 22 22 37 39 39 40 45 44 44 44 45 49 50 52
51 51 51 51 51 51 51 51 51 51 51 49 51 51 33 36 30 27 29 27 27 31 30 30 30 30 27 29 29 30 27 26 26 21 25 29 26 19 16 15 16 21 17 21 25 35 32 20 19 20 24 26 30 32 31 29 29 23 20 17 10 12 11 16 20 27 23 29 15 21 18 17 20 22 24 27 31 31 37 39 42 43 42 43 44 46 49 51
51 51 51 51 51 51 51 51 51 51 51 51 48 35 36 38 39 40 36 25 28 31 32 32 35 31 30 29 29 31 30 24 23 22 25 28 22 18 14 12 12 13 23 23 23 20 20 15 21 27 32 35 35 35 32 30 27 25 19 16 14 12 11 23 26 28 26 26 16 18 16 15 21 22 25 29 30 30 35 39 41 43 41 41 41 45 48 50
51 51 52 51 51 51 51 51 51 50 51 51 43 37 36 41 44 43 41 33 33 33 31 31 30 28 27 32 33 32 28 20 19 24 22 22 18 15 13 10 15 17 20 24 18 20 18 14 26 29 32 34 35 35 33 31 29 23 18 18 15 16 15 15 27 29 30 26 23 21 18 17 22 24 26 28 30 36 43 44 44 44 41 41 41 43 46 49
51 51 51 52 51 51 51 52 50 51 51 44 36 37 40 42 44 42 40 36 31 31 33 33 32 29 26 26 32 30 25 24 23 21 24 20 17 15 14 12 14 15 10 14 17 13 10 26 30 31 31 33 31 34 32 23 18 25 27 19 14 21 17 14 22 26 31 34 32 21 22 18 18 19 21 28 30 35 35 35 36 38 40 44 46 46 47 47
51 51 51 51 52 51 51 51 50 49 46 43 36 40 41 46 47 44 42 38 37 32 36 34 34 33 30 35 33 31 27 28 26 26 25 22 17 17 14 14 14 12 9 12 15 13 11 35 32 27 29 28 32 28 26 26 16 20 26 25 22 23 23 23 26 23 21 24 28 24 11 8 21 19 17 24 26 22 22 26 26 27 31 35 40 44 46 50
51 51 51 51 51 52 51 50 45 42 39 35 37 41 44 45 47 50 43 35 24 21 29 24 31 25 33 31 31 31 28 20 19 27 22 20 22 16 17 13 15 16 16 13 12 19 20 34 33 29 30 29 27 22 25 25 16 17 19 23 22 21 26 26 25 22 15 12 27 28 13 9 18 19 20 24 23 22 25 27 25 29 29 29 33 36 40 45
51 51 51 51 51 50 49 38 39 40 38 36 40 46 46 46 54 50 41 28 21 24 26 23 22 25 28 25 28 27 24 18 19 23 23 21 18 18 16 14 16 15 20 26 19 15 20 28 26 31 30 24 24 18 26 24 16 12 35 25 23 24 26 27 25 21 15 24 26 24 17 15 11 16 22 22 22 21 23 26 28 22 28 27 30 30 36 39
51 51 51 51 51 50 51 49 40 32 32 40 43 46 47 52 53 50 40 18 22 23 19 21 21 22 21 21 24 21 21 19 16 15 17 18 19 16 17 13 12 13 19 21 16 23 34 27 28 26 24 19 14 20 30 29 20 27 33 27 26 24 28 26 20 18 22 20 14 19 20 15 13 18 22 21 18 20 20 25 26 25 26 29 31 31 32 36
50 51 51 51 51 51 52 50 41 32 36 43 46 47 47 55 49 42 29 17 27 20 21 19 18 17 12 14 17 19 19 21 17 14 15 17 16 13 17 16 16 15 16 22 15 25 23 21 21 21 17 13 18 19 27 30 23 33 32 28 27 28 27 25 18 16 22 20 14 16 23 14 9 18 20 19 16 19 24 25 25 26 28 30 32 36 36 34
50 50 51 51 51 51 52 52 43 39 44 44 48 49 52 51 43 34 21 13 27 17 14 15 14 9 10 14 15 14 17 18 17 15 15 16 16 14 13 16 14 18 17 17 13 13 21 28 26 16 13 15 21 30 31 27 31 30 29 23 21 21 22 20 18 16 20 13 13 21 23 16 9 16 18 20 30 26 25 25 27 29 30 28 35 31 32 30
50 50 50 51 48 44 44 39 37 41 45 50 51 49 51 44 34 20 17 25 20 13 14 13 8 8 11 14 13 13 14 14 13 16 14 14 16 13 13 16 16 19 18 20 18 18 14 22 21 16 25 18 19 22 28 26 25 26 25 20 17 20 19 20 18 19 13 10 22 19 21 23 10 11 17 25 26 28 30 30 31 32 29 31 34 30 31 33
49 50 50 52 48 50 47 40 45 46 48 52 53 48 41 25 25 17 20 21 20 14 13 12 10 7 11 10 9 10 13 11 13 13 14 12 18 16 16 17 21 18 17 14 15 18 18 14 14 15 22 16 17 10 21 24 27 24 20 16 14 11 14 11 14 13 10 10 22 19 21 19 14 15 24 24 24 26 34 29 31 30 28 34 30 33 33 34
48 50 51 51 50 51 47 47 48 52 55 54 47 40 31 18 11 18 22 17 19 15 15 13 10 10 9 9 9 10 11 13 13 14 14 11 13 16 14 14 17 22 14 22 18 15 14 14 15 16 19 20 16 10 15 14 19 18 15 16 14 7 7 10 6 9 10 14 20 19 24 15 13 18 24 27 30 28 30 31 29 29 32 34 30 32 33 37
48 51 56 53 50 46 44 53 53 55 56 51 41 31 24 8 11 32 29 19 16 14 13 10 10 11 11 11 10 10 8 10 11 13 13 15 11 21 17 15 16 20 22 20 11 14 9 8 15 18 16 20 16 11 14 18 15 13 13 10 18 13 12 10 4 7 8 7 22 24 21 17 18 26 26 30 28 25 24 20 28 30 29 33 30 31 33 37
47 53 56 57 55 52 49 50 58 58 55 40 30 19 13 7 10 18 18 16 16 14 12 13 9 11 12 11 11 9 10 15 9 12 14 13 17 18 20 20 22 14 20 13 25 21 6 8 19 15 16 16 14 16 16 11 10 15 18 12 14 14 14 9 18 14 15 10 15 21 16 18 18 28 29 28 23 23 22 23 26 27 28 30 30 32 34 38
49 57 57 48 37 39 41 51 57 56 49 32 20 11 10 13 14 14 16 17 15 14 13 14 13 11 12 11 11 8 13 13 7 9 14 16 18 19 17 19 22 20 23 14 21 12 11 9 19 16 17 15 14 16 16 13 13 19 10 15 14 17 14 15 23 31 22 14 11 13 20 18 25 24 26 24 22 21 20 20 22 25 27 31 31 31 32 37
41 52 48 39 33 34 41 52 50 51 45 28 20 12 18 25 16 21 23 16 14 13 14 12 18 12 15 13 13 7 10 9 8 5 11 11 18 17 17 19 17 20 19 23 21 18 18 10 16 14 17 15 18 15 15 14 13 14 12 14 15 16 21 20 11 17 13 10 13 19 19 13 13 14 22 22 22 20 19 18 21 28 27 27 29 32 34 37
49 48 47 34 31 36 42 51 53 47 36 28 20 27 24 18 22 17 14 15 15 14 12 13 20 13 14 13 12 8 14 10 15 9 9 6 15 18 18 19 16 17 19 22 20 26 19 11 10 14 15 17 17 16 15 15 15 12 13 15 13 12 13 15 16 12 11 11 9 15 13 14 7 17 20 22 23 23 21 20 22 22 25 27 29 31 35 39
49 42 36 34 32 37 44 55 51 39 32 22 22 19 21 21 23 17 14 14 15 14 13 12 15 15 12 13 11 11 11 13 12 13 12 12 11 22 18 19 16 16 19 18 21 26 27 18 11 18 16 16 17 14 11 15 15 16 16 13 14 17 17 13 15 16 13 11 14 15 10 13 13 18 21 22 24 25 23 23 22 22 25 28 31 34 35 40
37 23 27 37 38 40 49 54 41 32 26 18 17 19 32 26 25 18 15 15 15 16 18 17 14 17 15 14 12 14 12 12 11 12 9 18 9 17 18 18 18 16 17 19 15 22 21 27 14 14 18 18 12 15 15 11 19 17 15 14 17 23 24 18 21 14 13 12 11 11 11 12 19 25 21 21 25 25 25 25 25 25 26 28 32 37 38 39
41 23 24 38 39 43 49 42 30 26 25 30 25 23 27 22 22 18 16 16 14 16 17 19 18 17 19 18 15 13 14 13 13 11 9 9 7 15 23 22 21 16 16 13 13 24 17 20 16 14 13 16 13 18 18 17 17 19 20 19 14 15 17 13 13 16 16 13 12 10 10 15 29 32 30 24 27 25 23 23 25 23 26 32 36 39 40 39
28 16 26 37 45 43 38 27 28 33 28 23 25 26 24 29 22 19 16 16 15 15 15 18 18 17 19 17 16 15 15 14 12 11 10 8 10 7 23 25 25 24 18 14 18 33 29 22 17 13 11 9 15 17 19 18 18 18 19 16 14 20 18 16 11 13 13 13 14 15 13 14 33 33 32 27 26 23 24 23 23 24 29 32 34 37 40 40
23 20 34 35 43 39 26 20 30 27 26 26 22 22 22 22 20 16 17 17 17 15 19 18 21 21 20 18 18 15 15 17 13 11 11 10 16 22 24 28 28 25 20 19 15 29 34 22 10 7 4 2 14 16 20 18 17 17 20 22 19 20 21 19 17 18 17 17 15 13 13 15 32 34 34 29 28 27 28 28 25 25 29 32 34 38 39 40
25 30 28 29 42 39 23 15 14 16 23 26 27 23 21 22 20 17 16 19 18 20 21 21 17 15 21 16 19 16 15 18 14 12 14 15 19 23 24 27 27 21 17 25 20 33 16 22 18 8 6 9 13 15 12 17 19 18 17 25 22 19 20 23 24 23 16 17 13 10 9 9 33 32 29 27 24 22 21 23 27 27 31 32 32 36 38 40
30 36 33 29 36 38 22 29 24 20 28 30 27 24 25 22 21 24 23 21 20 19 23 20 20 19 17 17 17 16 15 12 19 17 19 18 20 22 23 25 25 25 26 31 39 24 17 19 19 9 6 6 7 6 7 9 13 13 22 21 21 15 24 22 15 16 15 19 17 14 12 16 27 28 25 24 21 21 21 21 25 26 29 29 32 37 38 38
24 20 30 27 30 31 33 36 31 26 26 29 27 29 24 24 23 22 22 20 19 23 22 20 17 20 16 17 20 17 15 19 14 20 13 16 20 19 22 22 25 28 35 34 33 27 22 25 23 19 13 11 11 7 23 17 17 17 16 18 21 19 21 24 19 15 12 17 15 19 18 17 25 23 22 22 22 21 22 24 24 23 29 34 37 36 37 38
32 27 27 23 31 30 27 27 26 27 26 31 21 29 28 25 23 20 21 24 20 21 23 24 23 22 25 20 24 23 20 19 16 19 19 18 20 20 21 21 20 26 36 29 30 25 24 19 22 24 22 16 14 12 16 17 17 15 15 19 17 21 24 23 16 14 18 17 12 18 19 19 17 18 22 23 23 23 25 25 26 26 30 31 34 38 39 34
28 31 34 36 31 24 25 26 26 27 26 27 30 32 27 24 23 26 21 20 20 24 24 24 20 21 22 25 28 24 25 22 24 23 26 24 21 20 18 19 18 23 26 21 25 26 24 18 23 26 22 17 18 17 16 16 15 18 17 20 22 22 24 24 24 22 22 17 13 18 21 22 19 16 19 23 23 25 25 25 28 29 30 32 35 33 33 35
33 33 31 37 31 31 30 30 33 24 25 28 28 29 29 26 26 22 23 26 20 25 19 24 27 18 19 19 23 23 27 22 24 30 28 27 25 25 22 20 18 18 19 25 22 28 24 18 22 20 21 18 15 15 17 15 16 16 20 19 20 23 24 26 26 24 23 23 23 23 24 24 22 19 18 24 26 26 26 32 31 28 29 31 30 31 32 33
29 33 30 34 34 30 32 32 31 29 28 30 27 31 24 28 28 24 21 24 28 27 22 27 20 20 21 19 23 25 32 33 32 25 32 30 28 26 24 24 21 20 18 23 22 30 22 16 28 24 20 18 17 15 14 15 19 19 18 18 19 20 21 23 24 25 27 26 27 26 26 26 24 22 20 27 31 26 27 24 26 26 27 31 31 31 33 31
36 38 39 35 26 28 31 29 26 25 23 28 27 30 29 25 27 24 22 20 25 28 27 28 24 26 21 21 27 26 25 28 29 30 29 29 25 25 25 27 18 25 19 22 25 29 25 18 23 21 16 17 15 16 15 15 16 16 19 20 21 21 23 23 22 26 26 24 25 25 23 22 22 22 22 22 23 24 25 25 28 30 30 31 30 31 32 31
37 39 39 37 26 31 27 28 28 28 25 29 29 28 28 26 23 23 27 21 19 20 24 25 29 26 26 27 27 25 24 24 25 24 23 21 22 20 18 18 17 21 22 22 25 20 22 20 17 16 13 15 14 15 16 19 17 13 17 21 21 21 21 21 21 24 26 26 23 20 19 21 27 26 24 23 22 23 25 25 26 32 31 32 32 31 29 30